Location: Unspecified
(29.0040°N, 0.0000°E)
Time: 16:24:21
(UTC+00:00)

ISS - Pass Details

Date: 24 November 2019
Orbit: 411 x 421 km, 51.6° (Epoch: 08 December)

Event Time Altitude Azimuth Distance (km) Brightness Sun altitude
Rises 17:19:36 0° 251° (WSW) 2,338 3.2 -4.2°
Reaches altitude 10° 17:22:00 10° 268° (W) 1,481 0.5 -4.7°
Maximum altitude 17:24:38 21° 320° (NW) 978 -1.6 -5.3°
Drops below altitude 10° 17:27:18 10° 13° (NNE) 1,491 -1.3 -5.8°
Enters shadow 17:29:22 - 28° (NNE) 2,221 -0.5 -6.2°
